YAOGAN-30 AA

Satellite information

Favourite Embed

Satellite Type and Status

PAYLOADIN ORBIT

Key statistics

Satellite YAOGAN-30 AA at a glance.

Uptime

1544

Days in orbit

Revolutions

≈ 15.0

Per day

Orbit

LEO

Low Earth Orbit

Inclination

35.0

Latest

Satellite identification and parameters

Extended collection of information and parameters for YAOGAN-30 AA.

Object identification

Identified? True

Debris? False

Object name: YAOGAN-30 AA

International designator: 2021-055A

Object number (NORAD): 48860

Object ID (CCSDS): 48860

Country: PEOPLES REPUBLIC OF CHINA (PRC)

Current information (Y/N): Y

RCS size: LARGE

Orbital parameters

Period: 95.967 minutes

Inclination: 34.9948 deg

SMA: 6943.45 km

Apoapsis: 567.507 km

Periapsis: 563.124 km

RAAN: 66.497 deg

Eccentricy: 0.00031561

Argument of periapsis: 137.1958 deg

Mean anomaly: 222.8995 deg

Mean motion: 15.00513059 rev/day

Mean motion (dot): 0.00003748 rev/day2

B* drag term: 0.00029363559 1/REarth

Two-line elements (TLE)

Creation date: Sept. 8, 2025, 6:18 p.m.

Reference frame: TEME

Reference center: EARTH

Epoch: Sept. 8, 2025, 12:34 p.m. UTC

TLE line 0: 0 YAOGAN-30 AA

TLE line 1: 1 48860U 21055A 25251.52417201 .00003748 00000-0 29364-3 0 9995

TLE line 2: 2 48860 34.9948 66.4970 0003156 137.1958 222.8995 15.00513059230816

Live tracking on map

Real-time ground track for satellite YAOGAN-30 AA.

In-orbit conjunctions

There are no conjunctions computed for YAOGAN-30 AA, at the moment. Check back to stay up to date, as we update our databases every day.

Go to all conjunctions

Associated space launch

The Yaogan-30 is a series of military remote sensing satellites which are launched in triplets. The satellites are spaced by 120° in their orbit.

YAOGAN-30 AA was lifted into orbit during the mission ‘Long March 2C | Yaogan-30-09’, on board a Long March 2 space rocket.

The launch took place on June 18, 2021, 6:30 a.m. from Launch Complex 3 (LC-3/LA-1).

For more information about the launch, click the button.

Launch to space Long March 2C | Yaogan-30-09
Long March 2C | Yaogan-30-09

Agency: N/A

Status: Launch Successful

Launch date: June 18, 2021, 6:30 a.m. UTC

Rocket: Long March 2

Launch pad: Launch Complex 3 (LC-3/LA-1)

Location: Xichang Satellite Launch Center, People's Republic of China

...

Latest news about this satellite

News about space launch
China launches Chang Zheng 2C with trio of Yaogan-30 satellites

China has successfully launched a Chang Zheng 2C (also known as the Long March 2C) from teh Xichang Satellite Launch Center with three new Yaogan-30 satellites on June 18 at 06:30 UTC / 14:30 local time at the launch site from LC-3 after a 24 hour delay d...

News about space launch
China launches new group of classified Yaogan-30 satellites

China launched a group of classified Yaogan-30 satellites and one commercial satellite on a Long March 2C rocket early Friday.


Newsletter sign-up

Weekly statistics, charts and insights to help you stay on top of the space industry.